Wind_Speed
9 8 8 9 9 9 8 8 8 8 8 8 7 7 7 6 6 6 7 7 7 7 8 8 8 9 9 9 9 10 10 11 12 12 13 14 15 16 17 17 17 17 17
9 8 8 8 8 9 8 8 8 8 7 7 7 7 6 5 5 6 6 6 7 7 8 8 8 8 8 9 9 9 10 10 11 12 13 13 14 15 16 16 16 16 16
8 8 8 7 7 8 8 7 7 7 6 6 6 6 6 5 5 6 6 6 6 7 8 8 8 8 8 9 9 9 9 10 11 12 13 13 14 14 15 15 16 15 16
8 7 7 7 6 6 7 7 6 6 5 5 5 5 5 5 5 5 6 6 6 7 7 7 7 8 8 9 9 9 10 11 12 12 13 13 13 14 14 14 15 14 14
7 7 7 6 5 5 6 6 5 5 4 4 4 5 5 5 5 5 5 5 6 6 6 6 7 7 8 8 9 9 10 11 12 12 13 13 13 14 13 13 13 13 13
7 7 6 6 5 5 5 5 5 4 4 4 4 4 5 5 5 5 4 4 5 5 6 6 6 7 7 7 8 9 9 10 11 12 12 13 13 13 12 12 12 12 13
6 6 6 6 6 5 5 5 5 4 4 4 4 4 4 4 4 4 4 4 5 5 6 6 6 6 7 7 8 9 9 10 11 12 12 13 12 12 10 10 11 11 11
7 6 7 6 6 6 5 5 5 4 4 4 4 4 3 3 4 4 4 4 4 4 5 6 6 6 7 7 8 9 9 10 11 11 11 11 10 9 8 8 9 10 11
6 6 6 6 5 5 6 5 5 4 4 3 3 3 3 3 3 3 3 3 4 5 5 6 6 7 7 8 8 9 9 9 10 11 11 10 9 8 7 7 8 9 10
6 6 5 6 6 6 6 6 5 4 4 3 3 4 4 4 4 3 3 4 4 5 5 6 6 7 7 8 9 9 9 9 10 11 11 10 9 8 7 7 8 8 9
6 6 6 6 6 6 6 6 6 5 4 4 4 4 3 3 3 3 4 4 5 5 5 6 7 7 8 8 8 9 9 9 10 11 11 11 10 9 8 7 7 8 8
6 6 6 6 6 6 7 7 6 6 6 5 5 5 4 4 4 4 4 4 5 5 5 6 7 8 8 8 9 9 9 10 11 11 11 11 10 10 9 9 9 9 9
6 6 6 6 6 6 7 7 7 6 6 6 5 5 4 4 4 4 4 4 5 5 6 7 7 8 8 9 9 10 10 10 11 11 11 10 10 10 9 9 9 10 10
7 6 6 6 5 6 6 6 6 6 6 6 6 5 5 5 5 5 4 5 5 6 6 7 8 9 9 9 10 11 11 12 11 12 11 11 11 10 10 10 11 11 11
6 6 6 5 5 6 6 6 6 6 6 6 6 5 5 5 5 5 5 5 6 7 7 8 9 9 10 10 11 11 11 12 12 12 13 12 12 11 11 11 11 11 12
7 7 7 7 6 6 6 6 6 6 6 6 6 5 5 4 4 5 6 6 6 7 8 9 9 10 10 11 11 11 11 12 12 13 13 12 12 12 11 12 12 12 13
8 8 7 7 7 7 7 7 7 7 6 6 6 6 5 5 5 5 6 7 7 7 8 9 9 9 10 10 10 11 11 11 12 12 13 13 13 13 13 13 14 14 15
8 8 8 8 8 8 8 7 7 7 7 7 7 6 6 6 6 6 6 6 7 7 8 8 9 9 10 10 11 11 12 12 13 13 13 13 13 14 14 15 15 16 16
8 8 9 9 9 9 9 9 8 7 7 7 7 7 7 7 7 6 6 6 7 7 8 8 9 10 11 11 11 12 12 13 14 14 14 14 14 15 16 16 17 17 18
9 9 10 9 10 10 10 9 9 8 8 7 7 7 7 7 7 7 7 7 8 8 9 9 10 11 11 12 13 13 13 14 14 15 15 16 16 17 17 18 18 19 19
9 9 9 10 10 10 10 10 9 9 8 8 8 8 8 8 8 8 8 8 9 9 9 10 11 12 12 12 13 13 14 15 15 16 16 16 17 18 19 20 20 20 21
10 10 9 9 10 10 10 10 10 9 9 9 9 9 9 9 9 9 9 9 10 10 11 11 12 12 13 13 14 14 14 15 16 17 17 18 18 19 20 20 21 21 23
10 10 11 11 10 10 10 10 10 11 11 10 10 10 11 11 11 11 11 11 11 12 12 13 13 14 14 15 15 15 15 16 17 18 18 19 19 20 21 22 22 23 24
11 11 10 11 11 11 11 11 11 11 11 12 13 12 12 12 12 12 13 13 13 13 14 14 14 14 15 15 15 16 16 17 18 19 19 20 21 21 22 23 23 24 25
12 12 11 11 11 11 11 11 11 12 12 13 13 13 13 14 14 14 14 15 15 15 15 15 15 16 16 17 17 17 17 18 18 19 20 22 22 22 22 23 24 25 27
13 13 13 12 13 13 13 13 12 13 13 13 13 13 13 14 14 15 15 15 15 15 16 16 17 17 17 17 18 19 19 19 20 21 22 23 24 24 24 24 26 28 29
Wind_Direction
284 281 276 271 268 263 259 258 258 261 258 257 258 258 263 271 280 282 283 286 293 298 297 298 295 294 296 297 298 295 292 289 284 284 283 281 281 281 280 281 282 282 282
280 277 276 276 268 264 261 258 257 261 260 258 259 260 264 269 279 285 284 287 294 298 298 296 298 298 296 299 300 299 296 292 291 288 285 285 287 286 284 282 282 281 283
277 272 274 277 270 259 256 253 254 256 256 258 257 255 258 265 277 287 291 293 295 297 297 298 302 301 296 302 301 302 299 297 295 292 290 289 291 292 288 284 283 282 282
273 273 271 273 270 258 250 248 246 245 249 254 253 252 256 267 278 285 289 292 294 299 302 303 304 306 303 306 307 305 302 301 300 298 294 293 294 294 292 286 282 282 281
270 268 268 269 266 255 247 244 239 237 242 252 256 258 264 266 272 282 289 296 299 304 308 310 312 312 312 314 313 310 306 306 307 305 300 297 297 297 295 288 282 280 282
267 267 262 260 257 252 245 236 228 226 233 248 258 266 269 270 269 277 285 297 308 315 317 317 321 320 319 321 321 322 320 319 319 317 313 308 305 303 299 292 286 283 284
264 261 257 253 251 249 237 230 221 222 237 249 253 260 261 267 271 274 281 294 310 318 321 322 327 326 325 327 330 331 329 329 326 326 322 318 311 306 302 299 294 290 289
265 262 258 253 248 238 232 221 222 230 245 245 245 248 260 264 267 263 277 291 310 323 325 326 332 331 334 339 341 338 339 340 341 341 337 331 325 317 302 302 300 298 298
255 256 254 249 238 232 228 220 223 231 233 239 241 245 251 256 266 270 280 302 316 323 324 327 331 335 337 339 339 341 340 340 346 352 350 350 346 338 326 318 313 307 304
247 249 246 241 234 226 221 219 223 226 236 243 246 249 251 252 259 266 287 299 312 319 322 325 327 334 337 338 339 339 344 345 348 351 351 356 355 349 341 332 327 320 317
248 246 245 239 235 227 222 221 221 228 238 243 249 258 255 255 265 282 295 301 307 310 317 323 325 331 336 336 338 341 344 345 346 349 349 353 355 352 348 339 334 332 328
247 247 245 239 239 233 228 225 226 233 239 243 250 256 254 261 274 286 295 303 307 311 320 322 323 328 334 334 337 338 339 340 341 342 341 343 345 341 338 336 335 335 332
240 241 240 243 245 231 224 226 232 237 242 243 248 253 256 266 276 283 290 299 308 315 319 322 323 327 330 330 329 332 336 338 337 337 335 337 336 335 334 332 330 330 329
239 243 242 241 238 229 223 225 229 236 240 247 252 255 260 268 274 278 284 296 304 309 313 316 319 324 327 330 331 330 331 334 338 341 339 338 338 338 335 331 328 328 328
240 240 241 236 236 232 228 230 236 241 243 249 255 258 267 262 267 278 290 297 300 305 309 312 316 321 323 325 326 326 330 334 334 335 335 335 336 335 332 332 332 332 331
236 237 239 235 235 235 234 236 240 238 241 250 253 261 262 261 268 282 292 296 302 306 307 308 312 316 318 321 324 325 327 330 331 333 333 330 330 332 331 331 329 328 327
240 241 243 237 237 237 240 237 237 237 243 249 252 258 256 265 274 285 291 294 300 305 307 311 315 318 320 323 327 328 328 328 327 329 329 326 325 325 324 325 323 321 320
239 241 242 242 239 238 238 239 241 242 248 249 252 255 258 267 274 280 286 294 303 308 310 315 318 320 321 323 324 325 328 328 328 328 330 328 326 324 324 322 320 319 318
239 239 241 244 242 241 241 240 240 245 251 252 254 255 261 268 273 275 281 291 301 307 309 313 316 316 317 319 321 321 323 326 327 329 331 329 328 326 325 324 321 320 318
242 244 243 243 242 242 243 243 241 243 248 253 252 255 261 268 272 276 281 290 297 301 305 309 312 313 314 315 316 319 322 324 325 326 327 327 325 324 322 321 320 319 317
242 242 243 242 243 245 245 244 240 239 245 247 253 261 266 271 272 276 281 289 295 299 303 307 310 311 313 315 316 318 319 321 322 321 321 322 322 321 320 320 319 318 317
242 243 245 246 245 243 243 244 243 243 245 249 258 264 266 270 272 274 281 289 294 298 303 306 309 309 309 312 316 318 319 319 318 318 319 319 319 319 319 319 318 318 318
243 244 247 247 246 243 244 244 249 250 251 255 261 266 267 270 272 274 280 286 292 295 298 302 305 309 310 311 313 314 315 316 317 317 317 318 319 319 317 317 317 317 317
245 244 245 243 244 245 246 247 251 253 256 259 263 265 268 270 273 277 281 286 290 293 295 298 302 306 310 311 310 311 313 314 314 315 315 316 316 316 316 316 316 318 319
245 245 247 246 246 247 248 250 253 255 258 263 264 265 268 270 275 280 283 286 288 291 293 297 301 303 305 307 308 309 311 313 312 314 315 317 318 316 316 317 317 318 319
248 249 248 249 249 249 250 252 255 259 261 263 266 270 273 274 276 280 284 286 287 289 291 295 299 303 305 306 306 308 310 311 311 312 312 315 317 317 316 316 316 316 317
Height
5853 5853 5853 5853 5853 5854 5854 5855 5856 5857 5857 5858 5858 5859 5859 5859 5859 5860 5860 5860 5860 5859 5859 5859 5858 5858 5858 5857 5857 5857 5856 5856 5855 5855 5854 5854 5854 5853 5853 5852 5851 5850 5848
5851 5851 5852 5852 5852 5852 5853 5853 5854 5855 5856 5856 5857 5857 5858 5858 5858 5858 5859 5859 5858 5858 5858 5858 5857 5857 5856 5856 5855 5855 5854 5853 5853 5852 5851 5851 5850 5850 5849 5848 5848 5847 5846
5849 5850 5850 5850 5850 5850 5851 5852 5853 5854 5854 5855 5855 5856 5856 5857 5857 5857 5857 5857 5857 5857 5856 5856 5856 5855 5854 5854 5853 5853 5852 5851 5850 5849 5848 5848 5847 5846 5846 5845 5844 5844 5844
5848 5848 5849 5849 5849 5849 5850 5851 5852 5852 5853 5854 5854 5855 5855 5856 5856 5856 5856 5856 5856 5856 5855 5855 5855 5854 5853 5852 5852 5851 5850 5849 5848 5847 5846 5845 5844 5843 5842 5841 5841 5841 5840
5846 5847 5847 5847 5847 5848 5849 5849 5850 5851 5852 5852 5853 5854 5854 5855 5855 5855 5855 5855 5855 5855 5854 5854 5854 5853 5852 5851 5850 5849 5848 5847 5846 5844 5843 5841 5840 5839 5839 5838 5838 5838 5837
5845 5845 5846 5846 5846 5847 5848 5848 5849 5850 5851 5852 5852 5853 5853 5854 5854 5854 5855 5855 5854 5854 5854 5853 5853 5852 5851 5850 5849 5848 5847 5845 5844 5842 5840 5839 5837 5836 5835 5835 5835 5835 5834
5843 5844 5845 5845 5845 5846 5847 5847 5848 5849 5850 5851 5852 5852 5852 5853 5853 5853 5854 5854 5854 5853 5853 5853 5852 5851 5850 5849 5848 5847 5845 5844 5842 5840 5838 5835 5833 5832 5832 5832 5832 5832 5831
5842 5843 5844 5844 5844 5845 5846 5847 5848 5848 5849 5850 5851 5851 5852 5853 5852 5853 5853 5853 5853 5853 5852 5852 5851 5850 5849 5848 5847 5846 5845 5843 5841 5839 5836 5833 5829 5828 5829 5830 5830 5830 5829
5841 5842 5842 5843 5844 5844 5845 5846 5847 5848 5849 5849 5850 5851 5851 5852 5852 5853 5852 5852 5852 5852 5852 5851 5850 5850 5849 5848 5847 5845 5844 5842 5840 5838 5835 5831 5828 5827 5828 5828 5828 5828 5827
5840 5840 5841 5842 5843 5844 5845 5846 5846 5847 5848 5849 5849 5850 5851 5851 5852 5852 5852 5852 5851 5851 5851 5850 5850 5849 5848 5847 5846 5845 5843 5842 5840 5837 5835 5832 5830 5829 5828 5828 5827 5827 5826
5838 5839 5840 5841 5842 5843 5844 5845 5846 5847 5847 5848 5849 5849 5850 5850 5851 5851 5851 5851 5851 5850 5850 5849 5849 5848 5847 5846 5845 5844 5842 5841 5839 5837 5835 5833 5831 5830 5828 5827 5827 5826 5825
5837 5838 5839 5840 5841 5842 5843 5844 5845 5846 5847 5847 5848 5849 5849 5849 5850 5850 5850 5850 5850 5849 5849 5848 5848 5847 5847 5846 5844 5843 5842 5840 5838 5836 5835 5833 5831 5830 5828 5827 5826 5825 5823
5836 5837 5838 5839 5840 5840 5841 5843 5844 5845 5846 5847 5847 5848 5848 5848 5849 5849 5849 5849 5849 5849 5848 5847 5846 5846 5845 5844 5843 5842 5841 5839 5837 5835 5834 5832 5830 5829 5827 5826 5825 5824 5822
5835 5836 5837 5837 5838 5839 5841 5842 5843 5844 5845 5845 5846 5847 5847 5847 5847 5848 5848 5848 5848 5848 5847 5846 5845 5845 5844 5843 5842 5840 5839 5838 5836 5834 5832 5831 5829 5827 5826 5825 5824 5822 5821
5833 5834 5835 5836 5837 5838 5840 5841 5842 5843 5843 5844 5845 5845 5846 5846 5846 5846 5847 5846 5847 5846 5846 5845 5844 5843 5842 5841 5840 5839 5838 5836 5834 5833 5831 5829 5828 5826 5825 5823 5822 5820 5819
5832 5833 5834 5835 5836 5837 5838 5840 5841 5841 5842 5843 5844 5844 5844 5844 5845 5845 5845 5845 5845 5845 5844 5843 5843 5842 5841 5840 5838 5837 5836 5834 5832 5831 5829 5827 5826 5824 5823 5821 5820 5818 5817
5831 5832 5833 5834 5835 5836 5837 5838 5839 5840 5841 5842 5842 5843 5843 5843 5843 5844 5843 5843 5843 5843 5842 5842 5841 5840 5839 5838 5837 5835 5834 5832 5830 5829 5827 5825 5824 5822 5821 5819 5818 5816 5814
5829 5830 5831 5832 5834 5835 5836 5837 5838 5839 5840 5840 5841 5841 5842 5842 5842 5842 5842 5842 5841 5841 5840 5840 5839 5838 5837 5836 5835 5834 5832 5831 5829 5827 5825 5823 5822 5820 5818 5816 5815 5813 5811
5827 5828 5830 5831 5832 5833 5834 5835 5836 5837 5838 5839 5839 5840 5840 5840 5841 5840 5840 5840 5840 5839 5839 5838 5837 5836 5835 5834 5833 5832 5830 5828 5827 5825 5823 5821 5819 5818 5816 5813 5811 5809 5808
5825 5826 5827 5829 5830 5831 5832 5833 5834 5835 5836 5837 5838 5838 5838 5839 5839 5839 5839 5839 5838 5837 5837 5836 5835 5834 5833 5832 5831 5829 5828 5826 5824 5823 5821 5819 5817 5814 5812 5810 5808 5806 5803
5823 5824 5825 5827 5828 5829 5830 5831 5832 5833 5834 5835 5836 5836 5837 5837 5837 5837 5837 5836 5836 5835 5835 5834 5833 5832 5831 5829 5828 5826 5825 5823 5822 5820 5818 5816 5814 5811 5809 5806 5804 5801 5799
5821 5822 5823 5824 5826 5827 5828 5829 5830 5831 5832 5833 5834 5834 5834 5835 5835 5835 5834 5834 5834 5833 5832 5831 5830 5829 5828 5827 5825 5824 5822 5821 5819 5817 5815 5813 5811 5808 5805 5802 5799 5797 5794
5818 5819 5821 5822 5823 5824 5825 5826 5827 5829 5830 5831 5831 5832 5832 5832 5832 5832 5832 5832 5831 5830 5830 5829 5828 5826 5825 5824 5822 5820 5819 5817 5815 5813 5811 5808 5806 5804 5800 5798 5795 5791 5788
5816 5817 5818 5820 5821 5822 5823 5824 5825 5826 5827 5828 5828 5829 5829 5829 5829 5829 5829 5829 5828 5827 5826 5825 5824 5823 5821 5820 5818 5817 5815 5813 5811 5809 5807 5804 5801 5799 5796 5792 5789 5786 5782
5813 5814 5815 5817 5818 5819 5820 5821 5822 5823 5824 5825 5825 5825 5826 5826 5826 5826 5825 5825 5824 5823 5822 5821 5820 5819 5817 5816 5814 5813 5811 5809 5807 5805 5802 5799 5796 5793 5790 5787 5784 5780 5777
5810 5811 5812 5814 5815 5816 5817 5818 5819 5820 5821 5821 5822 5822 5822 5822 5822 5822 5821 5821 5820 5819 5819 5818 5816 5815 5813 5812 5810 5808 5806 5804 5802 5800 5797 5794 5791 5788 5785 5782 5778 5774 5770